Dewpoint
49 47 48 49 49 50 51 50 48 49 50 46 47 47 49 49 48 46 42 43 47 49 49 44 41 40 42 40 43 41 34 30 32 33 32 39 42 43 41 38 41 56 57 60 67
49 47 48 48 49 51 50 50 50 50 48 47 47 46 47 48 46 44 45 46 48 49 45 40 37 38 35 40 40 36 32 30 33 34 33 35 41 46 45 40 40 55 61 66 66
48 47 47 47 48 48 49 50 49 51 47 45 47 48 48 48 41 39 47 44 45 43 44 41 41 37 35 38 38 37 31 31 33 37 38 37 41 45 46 43 42 51 60 64 65
49 47 47 47 49 48 50 49 50 50 47 47 48 47 48 45 24 38 42 40 40 40 42 40 40 36 33 32 37 34 35 34 34 38 38 39 42 43 46 46 47 47 61 63 62
50 47 47 48 47 48 48 50 49 49 47 47 48 47 45 41 38 40 40 38 35 37 37 37 38 38 33 34 35 35 34 36 36 35 36 41 42 44 43 46 48 49 57 60 61
49 48 47 47 47 47 48 49 50 48 47 47 47 46 42 34 37 37 36 35 34 34 33 38 37 38 36 35 35 36 36 37 37 36 36 38 40 43 43 47 48 53 55 58 61
49 49 48 48 48 47 48 48 50 48 47 47 47 44 40 35 36 35 37 35 35 35 35 37 41 38 37 33 38 37 33 35 36 33 35 41 38 37 42 47 48 50 54 57 60
50 49 47 47 48 47 47 49 48 47 45 46 47 42 31 38 38 36 35 34 35 36 38 41 40 39 36 38 35 32 33 28 35 32 34 38 31 37 44 45 47 48 51 53 56
51 49 47 48 47 47 48 49 48 46 44 47 42 39 31 37 34 34 34 33 34 35 38 40 38 36 37 31 27 31 26 28 30 31 30 37 32 36 42 43 46 46 47 49 52
51 49 47 48 46 48 49 45 45 44 43 44 42 35 32 31 33 32 34 34 32 33 32 32 31 30 30 29 16 23 26 29 28 30 30 35 35 40 41 40 42 47 46 47 49
52 48 47 46 46 48 45 39 36 35 37 32 32 31 31 32 34 32 32 33 33 31 26 30 26 21 24 26 30 30 27 27 30 34 33 35 34 35 40 39 40 45 45 46 47
52 48 47 46 47 48 42 36 34 33 26 32 34 33 34 36 31 31 33 30 28 26 30 26 23 23 28 28 31 30 27 29 32 35 34 36 35 39 38 39 41 44 45 45 46
53 48 46 46 48 45 38 38 40 38 28 29 31 31 33 36 33 31 32 30 28 26 26 25 22 26 28 27 28 29 28 30 30 36 38 36 35 37 40 42 43 43 45 45 45
52 48 46 48 44 42 37 40 40 32 21 25 30 33 35 35 30 34 33 30 27 25 27 26 26 29 29 28 31 26 33 34 33 31 29 35 26 36 39 39 41 43 44 44 45
51 47 46 47 43 40 40 40 38 29 12 17 32 38 37 32 33 32 34 29 26 25 26 19 27 28 29 31 33 30 35 33 34 31 32 31 25 32 38 37 38 40 42 44 45
51 47 47 46 42 41 41 38 32 14 -1 27 32 34 32 31 30 32 31 32 30 28 28 26 32 31 32 35 34 34 34 32 33 30 24 30 24 27 34 35 36 38 43 44 44
49 46 47 45 39 42 40 33 16 8 18 21 27 32 30 27 27 29 29 24 26 22 23 29 30 33 35 32 33 31 28 22 20 20 22 30 24 23 34 35 36 34 40 43 43
49 47 47 43 42 40 32 21 12 12 18 24 30 31 28 30 28 27 26 22 29 29 24 23 22 32 35 32 30 31 28 20 15 18 23 30 23 24 26 32 35 36 37 43 43
48 46 43 42 42 37 25 17 3 19 24 24 24 23 24 30 26 25 24 24 24 30 26 24 25 35 33 34 34 30 27 32 23 23 21 26 24 22 25 25 27 30 34 36 37
45 43 42 44 41 35 25 14 24 26 25 27 22 27 23 27 23 23 23 28 30 26 31 30 21 28 32 33 34 33 35 26 24 16 18 23 18 21 24 25 27 29 31 32 32
42 36 43 44 37 31 18 17 24 24 30 28 27 26 25 25 25 22 25 28 34 31 30 31 23 22 27 29 28 29 29 30 27 24 19 17 20 23 26 26 28 30 30 30 30
40 31 43 41 32 25 19 23 24 23 31 29 29 27 24 27 26 24 25 29 33 35 30 32 25 23 25 29 34 29 27 30 22 23 20 20 22 25 27 31 31 32 34 33 33
37 36 42 40 24 20 22 22 21 23 23 26 24 26 28 26 23 24 27 30 36 35 33 35 26 18 18 23 28 29 31 32 27 26 24 19 22 26 27 29 33 33 34 35 36
34 30 36 37 27 21 21 20 20 22 22 26 27 28 28 27 30 27 26 31 35 35 38 36 31 25 22 25 27 25 29 31 26 23 25 23 23 25 25 26 27 33 36 36 36
30 28 33 29 27 23 21 21 20 19 22 26 27 27 27 27 27 26 28 27 31 32 33 34 28 30 30 29 30 29 28 30 29 28 24 26 25 26 28 28 29 32 35 36 37
28 27 24 22 24 22 22 20 19 20 22 22 25 27 27 26 25 25 26 27 28 31 32 34 27 29 25 26 30 28 29 31 30 31 30 29 28 30 30 30 30 31 31 32 36
31 26 22 23 22 20 19 21 20 22 23 23 27 27 27 27 28 28 29 30 30 30 30 31 27 25 20 22 27 22 23 29 30 30 30 26 29 30 30 31 32 33 33 31 34
Wind_Speed
12 13 11 12 13 14 12 11 13 10 11 12 14 13 12 10 9 4 8 9 5 12 8 2 1 2 1 4 4 1 10 23 23 21 24 15 11 19 17 19 10 6 4 9 26
13 13 11 12 12 12 12 12 13 10 9 11 12 12 10 8 4 8 10 10 10 10 3 1 4 2 3 3 5 12 15 25 17 19 20 17 19 15 11 19 18 7 4 23 33
14 13 11 12 12 12 13 12 14 9 9 8 9 8 6 4 3 4 5 2 7 3 4 3 3 2 3 4 6 7 26 26 23 18 6 15 17 12 12 16 20 12 17 24 29
13 12 12 11 11 11 12 12 12 6 6 7 8 6 6 1 3 3 4 7 6 3 4 2 3 2 4 7 9 14 16 23 25 7 7 15 12 15 14 21 26 13 23 26 30
12 13 12 10 11 11 10 12 11 4 5 5 8 5 3 1 7 5 2 6 3 1 1 3 6 5 10 7 9 15 13 13 17 24 23 12 16 4 20 35 26 15 17 31 28
14 13 11 10 9 9 10 10 8 4 4 4 6 4 1 4 3 3 3 3 3 2 2 2 4 5 9 11 12 6 11 14 17 21 19 21 7 3 7 27 27 22 26 29 33
16 10 11 10 7 8 10 8 4 5 5 4 4 2 1 11 3 4 3 3 2 2 4 3 3 3 1 6 10 6 11 15 18 22 15 14 17 14 12 19 26 18 15 19 30
16 11 12 11 6 7 8 7 5 5 4 3 3 3 5 4 4 7 3 5 6 4 3 3 2 3 3 1 3 6 6 9 15 25 16 10 18 12 6 15 17 4 11 12 13
15 13 8 10 5 6 6 5 6 5 3 1 3 2 6 7 3 4 4 3 4 2 1 0 2 2 0 4 5 7 11 16 8 27 17 23 11 8 2 22 5 6 7 11 12
14 10 7 8 7 4 3 4 1 2 4 3 1 2 4 2 3 2 3 3 1 3 3 4 3 2 3 5 6 6 5 12 13 19 25 21 14 7 2 17 22 7 9 9 13
15 10 7 7 7 0 4 5 2 2 1 3 3 3 3 7 5 3 3 1 1 2 3 4 3 10 13 12 17 8 10 18 10 9 20 19 12 12 12 15 23 17 13 8 7
12 8 8 6 5 5 5 3 1 2 1 5 6 5 5 3 4 3 2 1 1 4 2 5 11 11 10 7 15 11 12 6 2 7 19 14 8 8 6 9 12 12 17 10 2
11 8 9 6 5 3 5 5 3 3 3 2 3 1 3 3 2 3 3 1 4 3 3 7 9 11 13 9 13 12 7 0 5 8 4 14 7 11 7 7 4 9 17 9 4
9 10 9 8 4 5 4 6 4 3 3 3 1 1 2 2 2 4 2 2 1 3 4 8 6 10 8 9 5 7 8 3 10 4 2 2 4 5 13 9 8 12 15 9 7
12 10 10 8 7 5 6 8 5 3 3 1 1 0 3 3 3 2 3 2 5 4 1 6 7 9 11 4 1 5 7 6 7 6 4 3 5 3 3 2 4 15 7 11 9
15 10 10 3 1 6 11 8 4 2 5 2 3 2 2 3 3 5 2 1 1 3 5 11 3 4 4 3 3 7 4 4 5 2 4 5 2 3 6 5 10 4 8 10 11
14 11 8 6 7 11 9 4 1 4 1 2 2 2 3 6 5 6 5 8 3 4 4 2 3 4 6 3 3 2 5 3 3 5 3 6 4 4 16 14 12 4 7 15 16
17 12 3 3 13 12 5 4 6 4 4 2 4 5 3 4 2 6 7 6 2 2 3 4 4 7 3 1 4 5 1 4 4 3 3 3 4 4 3 12 15 15 14 16 18
19 5 3 5 10 6 5 4 4 5 5 6 3 4 2 1 2 5 4 5 2 4 5 8 5 4 7 3 4 2 5 0 5 3 3 2 2 3 15 16 2 16 18 16 18
14 7 3 7 6 6 2 4 2 4 4 3 3 1 3 0 1 3 5 6 7 1 1 4 3 3 4 2 7 6 1 3 4 4 5 4 5 10 20 16 13 3 14 16 10
11 8 5 7 5 3 5 5 4 3 3 3 4 4 3 2 3 1 4 3 7 8 1 4 3 5 2 7 7 7 4 3 4 3 2 6 2 7 12 10 11 12 6 2 5
9 5 7 5 4 2 4 5 4 5 3 2 4 4 4 2 2 2 1 3 8 5 4 3 2 4 1 2 2 0 4 3 4 3 6 5 6 12 10 10 11 12 9 6 4
9 5 2 2 6 6 3 3 3 4 4 3 3 2 2 2 2 2 2 3 7 6 5 6 4 3 3 3 3 6 5 4 3 3 5 5 3 9 10 12 12 11 10 11 12
8 9 3 4 1 5 7 6 5 2 3 4 4 3 4 2 3 3 0 2 5 8 7 4 4 5 3 1 2 4 5 5 4 4 5 5 6 7 10 12 12 11 10 11 11
4 5 7 11 11 7 6 9 9 6 2 3 3 4 6 4 3 3 1 1 4 9 5 3 5 5 5 6 2 5 4 5 7 3 4 8 7 4 6 8 9 9 12 14 14
9 8 4 3 13 15 6 10 10 5 6 5 4 7 4 5 3 6 4 2 2 6 6 4 3 4 5 7 4 10 8 3 7 5 8 5 7 3 6 9 14 13 12 13 12
2 3 7 3 8 9 10 12 12 11 2 2 9 6 6 4 6 5 3 3 0 2 4 3 3 2 2 5 1 7 8 3 2 3 5 5 3 3 6 9 9 10 10 10 11
Wind_Direction
315 306 308 309 306 313 318 320 313 315 330 325 328 323 324 324 329 331 261 229 225 253 268 291 19 351 221 240 212 204 237 238 239 238 238 206 249 270 258 264 277 186 180 168 154
304 304 304 307 312 319 323 316 309 309 322 333 336 330 324 335 321 268 249 257 260 282 198 299 308 9 278 247 220 208 227 236 246 242 266 259 212 282 319 283 252 205 96 139 152
294 301 304 307 310 312 309 319 312 314 327 335 334 334 341 10 322 259 260 299 269 336 162 175 163 161 239 224 220 219 234 232 251 265 301 268 238 211 312 268 274 222 162 159 166
288 297 297 301 311 312 319 312 318 313 349 338 339 334 349 30 302 265 294 342 339 45 154 199 145 210 246 246 228 243 239 238 247 274 311 308 230 233 243 275 268 267 173 168 171
275 284 294 298 303 306 311 313 317 320 354 330 339 357 45 293 255 267 318 354 4 25 205 240 223 226 246 226 244 250 253 269 254 253 265 288 242 227 238 274 295 256 222 174 184
269 278 287 289 293 303 306 310 310 311 334 297 332 25 91 267 264 260 318 328 356 10 320 237 254 272 282 253 223 240 242 267 261 249 239 266 278 237 235 281 269 237 214 187 187
261 265 282 279 285 300 303 309 320 332 307 288 321 70 250 250 306 318 296 255 238 252 302 276 277 255 301 279 333 287 281 271 249 225 212 256 238 236 226 324 286 228 194 202 182
255 257 271 273 282 294 295 319 310 302 276 266 39 86 253 250 289 296 242 277 257 233 240 251 265 265 228 351 302 290 251 247 234 208 195 213 251 210 199 273 276 202 170 169 160
246 250 257 275 289 286 305 318 302 287 201 159 70 107 277 314 273 277 211 258 275 254 26 151 357 250 343 272 285 208 283 214 228 195 171 211 261 230 135 265 229 27 92 122 123
243 240 249 251 277 292 2 343 186 89 94 81 70 324 268 308 289 254 227 231 276 306 309 35 4 276 280 231 254 284 310 200 233 191 187 217 239 193 155 253 340 346 42 66 108
229 226 232 242 262 151 102 95 124 78 144 187 184 254 260 299 281 243 244 149 12 42 299 7 312 279 283 248 265 277 277 277 228 176 187 211 228 221 247 274 313 330 3 32 96
225 210 220 235 243 127 114 159 150 134 109 230 244 269 275 328 288 334 127 202 240 284 321 300 271 259 311 283 275 245 276 246 283 199 183 176 214 164 198 264 268 333 329 346 4
183 214 218 212 168 142 123 136 126 125 97 246 196 198 281 358 276 296 3 225 249 272 259 254 267 311 289 296 281 255 257 11 191 131 92 148 154 156 199 164 284 345 292 304 310
173 204 218 163 209 160 119 134 126 98 96 220 216 332 320 0 263 304 286 256 319 305 305 266 286 303 295 255 226 267 173 54 147 138 111 328 140 147 163 158 242 235 280 309 287
172 197 224 188 150 149 140 126 116 68 273 195 156 32 12 65 311 353 328 329 254 260 44 276 305 346 314 317 131 318 2 56 30 94 144 77 100 349 127 24 228 236 281 296 286
161 187 209 146 107 131 127 111 65 87 244 179 132 29 22 34 8 304 317 326 268 308 224 251 256 253 276 67 21 304 116 35 28 23 41 25 92 156 165 194 227 110 325 290 296
159 172 197 209 168 149 118 85 145 205 340 198 130 107 110 29 14 357 342 339 23 342 356 305 242 284 228 327 288 236 161 77 52 46 30 323 18 49 194 205 217 184 194 313 277
153 161 210 250 133 130 90 85 227 162 194 183 105 90 73 11 28 329 338 338 267 245 287 0 34 12 0 93 308 107 89 138 123 118 120 16 45 56 15 203 221 230 182 218 249
136 142 170 176 136 96 94 194 240 188 170 157 101 100 88 45 11 358 327 325 278 214 4 12 40 312 20 12 334 68 74 336 125 79 89 349 308 213 11 38 114 216 213 212 242
137 148 151 161 121 99 114 240 175 183 144 128 137 136 113 6 69 3 344 345 340 212 200 2 120 316 316 321 33 43 4 89 2 95 89 27 33 343 348 356 22 116 198 203 227
136 139 151 155 88 88 218 206 193 159 143 155 141 120 108 185 90 36 324 318 353 343 126 353 40 327 12 21 8 17 22 45 114 56 125 120 57 341 332 343 38 55 72 161 191
138 138 156 152 155 205 190 183 158 147 118 116 106 115 139 184 148 124 354 276 337 309 360 357 79 84 300 328 190 40 11 35 48 45 44 82 19 351 357 10 46 53 50 54 59
115 112 109 169 200 197 167 125 123 139 147 137 117 136 181 153 117 90 233 291 342 19 18 354 41 343 359 17 39 44 4 26 59 109 51 92 121 358 32 49 45 48 35 36 38
145 129 129 208 237 177 156 162 135 80 119 107 123 114 138 133 36 155 110 16 351 22 15 30 30 60 72 216 292 14 4 35 20 39 117 87 104 28 30 39 31 28 40 37 36
174 157 171 181 218 185 148 155 150 150 125 130 128 195 165 144 137 135 176 307 27 356 21 59 41 14 356 332 71 23 27 33 59 89 42 145 99 39 25 24 20 20 24 33 27
147 141 112 116 135 142 155 179 159 141 155 179 171 171 150 149 188 171 142 35 78 352 21 15 12 14 34 23 42 73 76 84 74 68 63 92 69 34 41 57 47 32 35 30 14
150 88 113 107 141 146 183 164 173 142 57 157 153 127 138 138 114 109 104 126 101 52 357 38 33 49 65 0 147 33 18 16 4 32 116 69 40 354 27 35 26 17 15 28 16